Regional Weather Roundup
Issued by NWS Midland/Odessa, TX

Skip options and go directly to product.
Home | Oldest Version | Previous Version | Current Version | All | Text Only | Save Text | Print | Product List | Glossary On

Skip product version selection by date and time.   
165
ASUS44 KMAF 290910
RWRMAF
MIDLAND AREA WEATHER ROUNDUP
NATIONAL WEATHER SERVICE MIDLAND TX
400 AM CDT WED JUL 29 2015

...IN SOUTHWEST TEXAS AND SOUTHEAST NEW MEXICO...

CITY           SKY/WX    TMP DP  RH WIND       PRES   REMARKS
ALPINE         MOCLDY    71  59  66 N3        30.17R
ANDREWS        FAIR      74  62  65 NW5       30.09S
ARTESIA        RAIN      70  70 100 NW18      30.10F
BIG SPRING     CLEAR     76  57  52 SE5       30.05S
CARLSBAD       MOCLDY    72  66  81 NW8       30.10R
DRYDEN           N/A     81  61  50 CALM      29.97S
FORT STOCKTON  CLEAR     79  61  53 SE8       30.01F
GUAD PASS      MOCLDY    66  61  84 N9        30.24S
HOBBS          PTCLDY    72  63  73 N10       30.13S
MARFA          CLOUDY    70  59  68 SE3       30.14F
MIDLAND AIRPK  MOCLDY    83  60  46 SW3       30.05S
MIDLAND INTL   PTCLDY    80  61  52 W5        30.04R
ODESSA         PTCLDY    82  60  47 S8        30.05S
PECOS          PTCLDY    82  62  50 NE5       30.01S
PRESIDIO       FAIR      82  57  41 CALM      29.99S
SEMINOLE       CLEAR     73  61  66 N7        30.11S
SNYDER         PTCLDY    76  63  62 CALM      30.04R
WINK           PTCLDY    79  62  56 N9        30.03F
$$
...OTHER STATIONS IN TEXAS...

CITY           SKY/WX    TMP DP  RH WIND       PRES   REMARKS
ABILENE        CLEAR     80  64  58 SE10      30.01R
AMARILLO       PTCLDY    66  63  90 N8        30.12S
AUSTIN         PTCLDY    74  73  97 S6        29.99S
BROWNSVILLE    CLOUDY   N/A N/A N/A SE6       29.95S
CORPUS CHRISTI PTCLDY    81  77  88 S12       29.95F
DALLAS FTW     CLEAR     84  68  58 S10       29.97R
DEL RIO        CLEAR     82  71  69 E13       29.93S
EL PASO        CLOUDY    72  65  78 N8        30.11F
HOUSTON INT    PTCLDY    80  77  90 CALM      29.99F
LUBBOCK        CLEAR     71  62  73 NE8       30.09F
SAN ANGELO     CLEAR     79  66  64 S8        30.00S
SAN ANTONIO    CLEAR     78  71  79 S6        30.01R
WACO           CLEAR     79  71  76 S9        30.00R
WICHITA FALLS  NOT AVBL
$$
...OTHER LOCATIONS IN NEW MEXICO...

CITY           SKY/WX    TMP DP  RH WIND       PRES   REMARKS
ALAMAGORDO     MOCLDY    70  64  83 CALM      30.16S
ALBUQUERQUE    MOCLDY    72  53  51 SE5       30.23S
CANNON AFB     MOCLDY    67  65  94 N8        30.17R
CLOVIS         PTCLDY    64  63  94 N8        30.18R
HOLLOMAN AFB   MOCLDY    70  64  80 NW6       30.14S
ROSWELL        LGT RAIN  72  66  81 SW9       30.15S
RUIDOSO          N/A    N/A N/A N/A MISG        N/A
SANTA FE       MOCLDY    65  52  62 SE12      30.31S
TRUTH OR CONSE CLOUDY    69  64  84 E6        30.20R
TUCUMCARI      MOCLDY    67  63  87 NW5       30.17S
$$

USA.gov is the U.S. government's official web portal to all federal, state and local government web resources and services.